Location: Strawberry
(45.6646°N, 111.9596°W)
Time: 22:55:38
(UTC+00:00)

Courier 1B - Pass Details

Date: 07 October 2022
Orbit: 962 x 1209 km, 28.3° (Epoch: 03 December)

Event Time Altitude Azimuth Distance (km) Brightness Sun altitude
Rises 20:18:43 0° 228° (SW) 4,084 11.5 36.7°
Reaches altitude 10° 20:22:37 10° 211° (SSW) 3,095 11.4 36.5°
Maximum altitude 20:27:28 18° 171° (S) 2,492 10.8 36.2°
Drops below altitude 10° 20:32:11 10° 131° (SE) 3,000 10.4 35.8°
Sets 20:35:53 0° 114° (ESE) 3,912 10.6 35.6°
